Location: Pella
(41.4080°N, 92.9160°W)
Time: 16:29:20
(UTC-06:00)

Daily predictions for brighter satellites

Satellite Brightness Start Highest point End
(mag) Time Altitude Azimuth Time Altitude Azimuth Time Altitude Azimuth
NOSS 3-1 (A) 4.1 17:09:46 10° NNW 17:17:10 61° NE 17:25:10 10° SE
Cosmos 1356 Rocket 3.9 17:10:08 10° N 17:14:08 41° ENE 17:18:11 10° SSE
SL-24 DEB 4.3 17:10:42 10° SSE 17:15:29 75° E 17:20:17 10° N
Cosmos 1825 Rocket 4.5 17:11:44 10° SSW 17:15:59 52° W 17:20:15 10° N
SJ-6F 4.4 17:12:16 10° SSE 17:16:20 78° ENE 17:20:26 10° N
Cosmos 1980 4.3 17:17:44 10° NNW 17:23:21 64° WSW 17:28:55 10° S
deb Chang Zheng 4 4.2 17:18:05 10° NNE 17:22:19 41° E 17:26:33 10° S
Cosmos 1125 Rocket 3.9 17:20:12 10° N 17:25:16 43° ENE 17:30:17 10° SE
H-2A R/B 2.2 17:20:57 10° SSE 17:25:25 61° ENE 17:29:53 10° N
Hubble Space Telescope 3.4 17:21:21 10° SSW 17:23:23 13° S 17:25:26 10° SSE
Cosmos 1758 Rocket 3.5 17:21:22 10° S 17:25:40 88° E 17:30:00 10° N
Cosmos 1666 2.9 17:22:27 10° N 17:26:20 54° E 17:30:13 10° SSE
AQUARIUS 4.2 17:23:01 10° SSE 17:27:26 61° ENE 17:31:53 10° N
Cosmos 1437 Rocket 4.0 17:23:10 10° SSW 17:27:02 44° WNW 17:30:52 10° N
SL-16 R/B 2.2 17:23:14 10° NNW 17:28:52 64° ENE 17:34:27 10° SE
Cosmos 1271 Rocket 3.7 17:27:52 10° SSE 17:31:14 28° E 17:34:35 10° NNE
Cosmos 921 Rocket 3.5 17:28:33 10° NNW 17:32:58 67° WSW 17:37:24 10° S
Resurs 01 Rocket 1.7 17:31:05 10° SSE 17:35:25 58° ENE 17:39:45 10° N
Cosmos 2218 Rocket 4.3 17:33:41 10° SSW 17:39:49 73° W 17:45:58 10° N
CZ-2C R/B 3.9 17:42:30 14° ENE 17:43:22 15° ENE 17:45:58 10° NNE
NOSS 3-1 (C) 4.2 17:41:49 10° NW 17:49:22 82° WSW 17:57:30 10° SSE
Abrixas rocket 3.1 17:42:59 10° W 17:46:25 45° NNW 17:48:55 17° NE
Cosmos 841 Rocket 3.4 17:43:53 10° SSW 17:49:00 85° ESE 17:54:11 10° NNE
Aureole 3 3.1 17:44:32 10° SSW 17:47:30 67° W 17:50:55 10° N
Cosmos 1842 Rocket 3.8 17:46:03 10° N 17:50:23 47° ENE 17:54:42 10° SSE
ADEOS II 3.5 17:47:45 10° SSW 17:52:42 42° W 17:57:41 10° NNW
ISS -1.1 17:47:56 10° NW 17:49:44 14° N 17:50:59 12° NNE
Cosmos 2333 Rocket 3.5 17:53:22 10° NW 17:58:43 45° WSW 18:04:03 10° S
Cosmos 1340 Rocket 2.8 17:55:18 10° N 17:59:17 85° W 18:03:16 10° S
Cosmos 1821 Rocket 4.4 17:56:19 10° SSE 18:01:48 37° E 18:07:23 10° NNE
MOZ.5/SAFIR/RUBIN 5/SL-8 3.7 17:58:20 10° NNE 18:02:58 62° E 18:07:32 10° S
CZ-4B DEB 3.7 17:58:51 10° SE 18:02:14 35° ENE 18:05:39 10° N
SJ-12 4.1 18:01:19 10° SSE 18:05:21 50° ENE 18:09:24 10° N
Celestis-02/Orion 38 4.5 18:03:49 13° NNE 18:08:22 71° ESE 18:13:25 10° SSW
Cosmos 1000 Rocket 4.4 18:04:13 10° N 18:10:28 65° E 18:16:35 10° SSE
HJ-1C 3.1 18:06:37 10° SSE 18:09:40 60° ENE 18:12:42 10° N
ATLAS 2AS CENTAUR R/B 3.2 18:06:42 10° NW 18:14:49 78° WSW 18:22:36 10° SSE
Cosmos-2242 3.6 18:07:03 10° NNW 18:11:23 61° W 18:15:41 10° S
SL-16 R/B 4.3 18:07:50 10° N 18:12:56 28° WNW 18:18:00 10° WSW
CZ-4 DEB 3.4 18:08:04 10° S 18:11:44 69° W 18:15:27 10° NNW
SJ-6B 4.0 18:08:57 10° S 18:12:39 45° W 18:16:29 10° NNW
Meteor 1-22 Rocket 4.1 18:09:14 10° N 18:14:32 62° ENE 18:19:56 10° SSE
Cosmos 2227 Rocket 4.0 18:09:22 10° WSW 18:14:09 28° NW 18:18:57 10° N
FALCON 9 R/B 3.5 18:11:55 10° WSW 18:16:30 51° S 18:30:24 12° ESE
Cosmos 1066 Rocket 4.1 18:12:26 10° S 18:17:46 66° E 18:23:18 10° NNE
COSMO-SKYMED 1 2.5 18:13:22 13° NNE 18:17:17 69° ESE 18:21:35 10° S
Lacrosse 4 Rocket 2.0 18:14:47 10° NW 18:19:11 62° WSW 18:23:25 10° SSE
USA 234 3.4 18:18:18 20° ESE 18:22:45 54° NNE 18:29:04 10° NW
Cosmos 1603 3.5 18:17:17 10° NNW 18:22:55 77° ENE 18:28:29 10° SSE
Cosmos 405 4.2 18:19:37 10° SSW 18:23:05 43° WNW 18:26:36 10° N
Meteor 1-21 4.3 18:19:50 10° S 18:25:22 58° E 18:30:28 13° NNE
Cosmos 1461 4.1 18:20:26 10° NNW 18:23:16 26° NNE 18:23:16 26° NNE
GPS 2-04 Rocket1 4.1 18:22:25 10° SW 18:25:06 21° SSE 18:25:45 20° SSE
Cosmos 1763 Rocket 4.4 18:23:25 10° SW 18:28:25 47° WNW 18:33:30 10° N
CZ-4B R/B 4.1 18:28:53 31° ESE 18:28:53 31° ESE 18:32:35 10° SSE
Tiangong 1 1.4 18:32:28 10° W 18:35:14 60° NW 18:35:14 60° NW
Lacrosse 5 3.9 18:33:45 10° NW 18:36:39 15° NNW 18:38:14 13° N
Okean 3 Rocket 4.3 18:40:52 10° SSW 18:45:14 54° W 18:49:37 10° N
Cosmos 1515 4.5 18:40:53 10° SSW 18:44:42 52° W 18:47:17 19° N
Cosmos 2297 Rocket 4.0 18:41:59 10° WSW 18:46:42 27° NW 18:51:27 10° N
CZ-2C R/B 2.9 18:43:59 10° SSW 18:47:00 35° W 18:50:03 10° NNW
Cosmos 2123 Rocket 3.8 18:44:56 10° N 18:51:09 72° E 18:57:22 10° SSE
Cosmos 540 Rocket 3.3 18:49:47 10° SSW 18:54:53 88° ESE 18:56:13 51° NNE
ERS-1 Rocket 4.2 19:04:16 28° N 19:04:16 28° N 19:06:40 10° N
ATLAS 5 CENTAUR R/B 3.1 19:00:13 10° S 19:03:04 29° SSE 19:03:04 29° SSE
Aureole 2 Rocket 3.3 19:02:17 10° NNW 19:07:24 85° WSW 19:08:11 64° S
Hubble Space Telescope 3.4 19:02:36 10° SSW 19:03:58 11° S 19:04:48 11° S
CZ-3A R/B 4.4 19:02:49 10° W 19:52:53 48° N 19:55:18 43° NNE
Cosmos 1605 Rocket 3.8 19:03:06 10° S 19:09:15 87° E 19:12:17 32° N
Cosmos 1766 4.1 19:04:18 10° NNW 19:08:14 51° W 19:12:08 10° S
PAYLOAD A 4.4 19:04:22 10° S 19:09:02 57° W 19:13:54 10° NNW
Meteor 2-13 Rocket 4.3 19:05:28 10° S 19:11:31 85° W 19:14:47 29° N
Meteor 1-4 Rocket 4.4 19:07:48 10° SSW 19:09:29 26° SSW 19:09:29 26° SSW
Cosmos 1538 Rocket 4.4 19:08:33 10° SSW 19:13:39 58° WNW 19:15:06 42° NNW
CZ-2C R/B 2.8 19:16:22 10° S 19:21:53 54° NW 19:25:52 10° NNW
BREEZE M DEB (TANK) 4.1 19:16:41 10° WNW 19:31:00 55° SW 19:32:35 42° S
BREEZE-M DEB (TANK) 4.3 19:17:03 10° WNW 19:38:33 62° SW 19:40:24 46° S
Cosmos 1943 3.7 19:18:33 10° NNW 19:22:35 48° NNW 19:22:35 48° NNW
NOSS 3-3 (A) 3.9 19:20:12 10° SW 19:26:34 87° NW 19:27:03 78° NNE
NOSS 3-3 (C) 3.9 19:20:18 10° SW 19:26:41 88° NW 19:27:07 79° NNE
Cosmos 2263 Rocket 4.4 19:29:00 10° S 19:29:37 13° S 19:29:37 13° S
USA 234 3.9 20:05:40 48° SW 20:05:46 48° SW 20:12:03 10° WNW
